FW8050 Weather Reports


Display with metric or nautical units.
time (UTC)temp
F
wind
direction
speed
MPH
gust
MPH
rain 1hr
in
rain 24hr
in
rain mn
in
humidity
%
barometer
mb
20260504081943 56 0 0.0 0.0 0.00 0.00 0.00 61 1016.2
20260504081442 55 0 0.0 0.0 0.00 0.00 0.00 61 1016.3
20260504080943 55 0 0.0 0.0 0.00 0.00 0.00 62 1016.3
20260504080444 55 0 0.0 0.0 0.00 0.00 0.00 62 1016.3
20260504050441 55 0 0.0 0.0 0.00 0.00 0.00 67 1017.5
20260504045940 56 0 0.0 0.0 0.00 0.00 0.00 67 1017.4
20260504045442 56 0 0.0 0.0 0.00 0.00 0.00 62 1017.5
20260504044942 56 0 0.0 0.0 0.00 0.00 0.00 65 1017.5
20260504044440 56 0 0.0 0.0 0.00 0.00 0.00 60 1017.5
20260504043942 57 145 0.0 2.0 0.00 0.00 0.00 62 1017.5
20260504043441 57 0 0.0 0.0 0.00 0.00 0.00 60 1017.5
20260504042941 57 0 0.0 0.0 0.00 0.00 0.00 56 1017.6
20260504042442 57 0 0.0 0.0 0.00 0.00 0.00 56 1017.5
20260504041943 57 0 0.0 0.0 0.00 0.00 0.00 56 1017.5
20260504041440 57 0 0.0 0.0 0.00 0.00 0.00 57 1017.4
20260504040941 56 0 0.0 0.0 0.00 0.00 0.00 59 1017.4
20260504040441 56 0 0.0 0.0 0.00 0.00 0.00 58 1017.4
20260504035940 56 11 0.0 1.0 0.00 0.00 0.00 59 1017.4
20260504035441 55 0 0.0 0.0 0.00 0.00 0.00 61 1017.5
20260504034942 54 0 0.0 0.0 0.00 0.00 0.00 66 1017.5
20260504034441 54 358 0.0 0.0 0.00 0.00 0.00 63 1017.6
20260504033941 53 0 0.0 0.0 0.00 0.00 0.00 68 1017.6
20260504033441 53 0 0.0 0.0 0.00 0.00 0.00 71 1017.6
20260504032941 53 0 0.0 0.0 0.00 0.00 0.00 70 1017.7
20260504032441 53 0 0.0 0.0 0.00 0.00 0.00 69 1017.8
20260504031941 53 0 0.0 0.0 0.00 0.00 0.00 69 1017.9
20260504031441 53 0 0.0 0.0 0.00 0.00 0.00 67 1017.9
20260504030941 53 0 0.0 0.0 0.00 0.00 0.00 67 1018.0
20260504030441 54 0 0.0 0.0 0.00 0.00 0.00 67 1018.0
20260504025941 54 0 0.0 0.0 0.00 0.00 0.00 67 1018.0
20260504025441 54 0 0.0 0.0 0.00 0.00 0.00 67 1018.1
20260504024941 55 0 0.0 0.0 0.00 0.00 0.00 66 1018.0
20260504024440 55 0 0.0 0.0 0.00 0.00 0.00 65 1017.9
20260504023941 55 0 0.0 0.0 0.00 0.00 0.00 64 1017.9
20260504023440 56 0 0.0 0.0 0.00 0.00 0.00 63 1017.9
20260504022941 56 0 0.0 0.0 0.00 0.00 0.00 61 1017.9
20260504022441 56 0 0.0 0.0 0.00 0.00 0.00 60 1017.9
20260504021941 56 0 0.0 0.0 0.00 0.00 0.00 57 1017.9
20260504021440 56 0 0.0 0.0 0.00 0.00 0.00 59 1017.8
20260504020942 56 0 0.0 0.0 0.00 0.00 0.00 58 1017.8
20260504020441 56 0 0.0 0.0 0.00 0.00 0.00 57 1017.7
20260504015941 56 91 0.0 0.0 0.00 0.00 0.00 57 1017.6
20260504015441 56 0 0.0 0.0 0.00 0.00 0.00 57 1017.6
20260504014941 57 0 0.0 0.0 0.00 0.00 0.00 56 1017.5
20260504014442 57 0 0.0 0.0 0.00 0.00 0.00 57 1017.4
20260504013941 57 0 0.0 0.0 0.00 0.00 0.00 58 1017.4
20260504013442 57 0 0.0 0.0 0.00 0.00 0.00 59 1017.3
20260504012941 57 0 0.0 0.0 0.00 0.00 0.00 58 1017.2
20260504012441 57 0 0.0 0.0 0.00 0.00 0.00 57 1017.1
20260504011941 58 0 0.0 0.0 0.00 0.00 0.00 56 1017.1
20260504011441 58 0 0.0 0.0 0.00 0.00 0.00 58 1016.9
20260504010941 58 0 0.0 0.0 0.00 0.00 0.00 56 1017.1
20260504010441 58 0 0.0 0.0 0.00 0.00 0.00 55 1017.1
20260504005942 59 0 0.0 0.0 0.00 0.00 0.00 55 1017.1
20260504005441 59 0 0.0 0.0 0.00 0.00 0.00 55 1017.1
20260504004941 60 0 0.0 0.0 0.00 0.00 0.00 53 1017.1
20260504004440 60 0 0.0 0.0 0.00 0.00 0.00 53 1016.9
20260504003940 60 0 0.0 0.0 0.00 0.00 0.00 52 1016.9
20260504003441 61 242 0.0 1.0 0.00 0.00 0.00 51 1016.9
20260504002941 61 0 0.0 0.0 0.00 0.00 0.00 49 1016.9
20260504002441 61 0 0.0 0.0 0.00 0.00 0.00 47 1017.1
20260504001941 62 0 0.0 0.0 0.00 0.00 0.00 46 1017.2
20260504001440 62 0 0.0 0.0 0.00 0.00 0.00 47 1017.2
20260504000941 62 0 0.0 0.0 0.00 0.00 0.00 47 1017.2
20260504000441 62 188 0.0 1.0 0.00 0.00 0.00 46 1017.2
20260503235941 63 0 0.0 0.0 0.00 0.00 0.00 47 1017.2
20260503235440 63 0 0.0 0.0 0.00 0.00 0.00 48 1017.2
20260503234941 63 0 0.0 0.0 0.00 0.00 0.00 47 1017.3
20260503234444 63 137 1.0 2.0 0.00 0.00 0.00 45 1017.3
20260503233940 63 152 0.0 1.0 0.00 0.00 0.00 45 1017.3
20260503233440 63 0 0.0 0.0 0.00 0.00 0.00 46 1017.3
20260503232940 64 0 0.0 0.0 0.00 0.00 0.00 45 1017.3
20260503232440 64 0 0.0 0.0 0.00 0.00 0.00 47 1017.4
20260503231941 64 0 0.0 0.0 0.00 0.00 0.00 47 1017.4
20260503231440 64 0 0.0 0.0 0.00 0.00 0.00 46 1017.5
20260503230941 65 0 0.0 0.0 0.00 0.00 0.00 43 1017.4
20260503230441 65 142 0.0 1.0 0.00 0.00 0.00 43 1017.5
20260503225942 65 0 0.0 0.0 0.00 0.00 0.00 42 1017.5
20260503225441 65 0 0.0 0.0 0.00 0.00 0.00 41 1017.6
20260503224940 65 133 1.0 2.0 0.00 0.00 0.00 43 1017.6
20260503224440 65 142 1.0 2.0 0.00 0.00 0.00 42 1017.5
20260503223943 65 0 0.0 0.0 0.00 0.00 0.00 43 1017.6
20260503223441 66 0 0.0 0.0 0.00 0.00 0.00 41 1017.6
20260503222941 66 0 0.0 0.0 0.00 0.00 0.00 42 1017.7
20260503222441 66 163 0.0 1.0 0.00 0.00 0.00 42 1017.7
20260503221941 66 204 0.0 2.0 0.00 0.00 0.00 43 1017.8
20260503221446 66 140 1.0 4.0 0.00 0.00 0.00 42 1017.8
20260503220940 66 0 0.0 0.0 0.00 0.00 0.00 43 1017.9
20260503220440 66 53 0.0 1.0 0.00 0.00 0.00 40 1017.9
20260503215941 66 162 2.0 3.0 0.00 0.00 0.00 40 1017.8
20260503215441 66 191 1.0 2.0 0.00 0.00 0.00 40 1017.9
20260503214941 66 136 1.0 3.0 0.00 0.00 0.00 39 1017.9
20260503214441 67 167 1.0 2.0 0.00 0.00 0.00 41 1018.0
20260503213940 67 217 0.0 2.0 0.00 0.00 0.00 42 1018.0
20260503213441 67 208 0.0 1.0 0.00 0.00 0.00 42 1018.1
20260503212941 67 135 1.0 2.0 0.00 0.00 0.00 39 1018.2
20260503212440 67 143 1.0 2.0 0.00 0.00 0.00 39 1018.3
20260503211941 67 306 0.0 2.0 0.00 0.00 0.00 38 1018.3
20260503211443 67 14 1.0 4.0 0.00 0.00 0.00 37 1018.3
20260503210940 67 179 1.0 2.0 0.00 0.00 0.00 38 1018.3
20260503210440 67 135 2.0 4.0 0.00 0.00 0.00 39 1018.3
20260503205941 67 155 1.0 2.0 0.00 0.00 0.00 39 1018.3
20260503205441 67 139 2.0 3.0 0.00 0.00 0.00 42 1018.4
20260503204940 67 158 1.0 2.0 0.00 0.00 0.00 41 1018.4
20260503204441 67 0 0.0 0.0 0.00 0.00 0.00 40 1018.5
20260503203941 67 158 1.0 2.0 0.00 0.00 0.00 41 1018.6
20260503203440 67 97 0.0 1.0 0.00 0.00 0.00 40 1018.6
20260503202941 67 129 2.0 4.0 0.00 0.00 0.00 40 1018.8
20260503202442 68 191 1.0 3.0 0.00 0.00 0.00 40 1018.9
20260503201941 68 203 2.0 4.0 0.00 0.00 0.00 40 1019.0
20260503201441 68 175 2.0 2.0 0.00 0.00 0.00 40 1019.1
20260503200941 68 178 0.0 2.0 0.00 0.00 0.00 40 1019.2
20260503200444 67 154 1.0 2.0 0.00 0.00 0.00 41 1019.3
20260503195940 67 147 1.0 2.0 0.00 0.00 0.00 41 1019.3
20260503195440 68 209 1.0 2.0 0.00 0.00 0.00 42 1019.5
20260503194940 68 176 2.0 4.0 0.00 0.00 0.00 45 1019.5
20260503194441 68 172 3.0 4.0 0.00 0.00 0.00 43 1019.7
20260503193941 69 163 2.0 5.0 0.00 0.00 0.00 43 1019.8
20260503193441 69 164 1.0 3.0 0.00 0.00 0.00 42 1019.8
20260503192940 68 157 1.0 3.0 0.00 0.00 0.00 40 1019.9
20260503192440 68 194 1.0 3.0 0.00 0.00 0.00 43 1019.9
20260503191941 68 175 2.0 6.0 0.00 0.00 0.00 40 1020.0
20260503191441 68 191 1.0 2.0 0.00 0.00 0.00 41 1020.2
20260503190941 68 186 1.0 2.0 0.00 0.00 0.00 42 1020.2
20260503190441 68 138 2.0 4.0 0.00 0.00 0.00 41 1020.3
20260503185942 69 214 2.0 3.0 0.00 0.00 0.00 42 1020.4
20260503185441 69 201 2.0 3.0 0.00 0.00 0.00 40 1020.4
20260503184942 69 51 1.0 2.0 0.00 0.00 0.00 41 1020.3
20260503184441 69 153 2.0 4.0 0.00 0.00 0.00 42 1020.4
20260503183942 68 153 2.0 3.0 0.00 0.00 0.00 43 1020.4
20260503183441 69 197 1.0 3.0 0.00 0.00 0.00 41 1020.5
20260503182940 69 143 3.0 4.0 0.00 0.00 0.00 39 1020.5
20260503182441 68 193 1.0 2.0 0.00 0.00 0.00 40 1020.7
20260503181943 67 212 2.0 2.0 0.00 0.00 0.00 41 1020.5
20260503181441 66 141 2.0 4.0 0.00 0.00 0.00 40 1020.6
20260503180943 68 132 2.0 5.0 0.00 0.00 0.00 38 1020.8
20260503180441 68 197 1.0 2.0 0.00 0.00 0.00 40 1020.8
20260503175941 68 158 1.0 3.0 0.00 0.00 0.00 40 1020.9
20260503175442 67 161 2.0 4.0 0.00 0.00 0.00 40 1020.9
20260503174940 68 114 4.0 8.0 0.00 0.00 0.00 40 1020.9
20260503174441 68 80 1.0 6.0 0.00 0.00 0.00 39 1021.1
20260503173941 68 195 1.0 2.0 0.00 0.00 0.00 42 1021.1
20260503173441 67 180 1.0 3.0 0.00 0.00 0.00 41 1021.1
20260503172940 67 125 1.0 3.0 0.00 0.00 0.00 40 1021.3
20260503172441 67 196 0.0 2.0 0.00 0.00 0.00 41 1021.5
20260503171941 67 186 2.0 3.0 0.00 0.00 0.00 41 1021.6
20260503171441 67 192 2.0 4.0 0.00 0.00 0.00 43 1021.5
20260503170940 68 190 2.0 3.0 0.00 0.00 0.00 39 1021.6
20260503170442 67 141 2.0 4.0 0.00 0.00 0.00 39 1021.7
20260503150944 60 143 1.0 3.0 0.00 0.00 0.00 52 1022.3
20260503150443 61 125 2.0 3.0 0.00 0.00 0.00 51 1022.2
20260503130942 51 137 0.0 2.0 0.00 0.00 0.00 80 1022.0
20260503130441 50 152 0.0 2.0 0.00 0.00 0.00 81 1022.0
20260503110441 46 0 0.0 0.0 0.00 0.00 0.00 91 1020.6